TimeCST,TemperatureF,Dew PointF,Humidity,Sea Level PressureIn,VisibilityMPH,Wind Direction,Wind SpeedMPH,Gust SpeedMPH,PrecipitationIn,Events,Conditions,WindDirDegrees,DateUTC
12:15 AM,32.0,24.8,75,30.24,10.0,NNW,8.1,-,N/A,,Clear,340,2012-11-12 06:15:00
12:55 AM,32.0,24.8,75,30.25,10.0,NNW,8.1,-,N/A,,Clear,330,2012-11-12 06:55:00
1:15 AM,30.2,24.8,80,30.25,10.0,NNW,3.5,-,N/A,,Clear,340,2012-11-12 07:15:00
1:55 AM,30.2,24.8,80,30.28,10.0,NNW,3.5,-,N/A,,Clear,340,2012-11-12 07:55:00
2:15 AM,30.2,24.8,80,30.28,10.0,North,4.6,-,N/A,,Clear,350,2012-11-12 08:15:00
2:55 AM,30.2,23.0,75,30.29,10.0,North,3.5,-,N/A,,Clear,350,2012-11-12 08:55:00
3:15 AM,30.2,23.0,75,30.29,10.0,North,3.5,-,N/A,,Clear,350,2012-11-12 09:15:00
4:15 AM,28.4,23.0,80,30.31,10.0,NNW,3.5,-,N/A,,Clear,330,2012-11-12 10:15:00
4:35 AM,28.4,21.2,74,30.33,10.0,Calm,Calm,-,N/A,,Clear,0,2012-11-12 10:35:00
5:15 AM,26.6,21.2,80,30.34,10.0,Calm,Calm,-,N/A,,Clear,0,2012-11-12 11:15:00
5:35 AM,26.6,21.2,80,30.35,10.0,Calm,Calm,-,N/A,,Clear,0,2012-11-12 11:35:00
5:56 AM,26.6,21.2,80,30.35,10.0,Calm,Calm,-,N/A,,Clear,0,2012-11-12 11:56:00
6:15 AM,26.6,21.2,80,30.36,10.0,Calm,Calm,-,N/A,,Clear,0,2012-11-12 12:15:00
6:35 AM,26.6,21.2,80,30.37,10.0,Calm,Calm,-,N/A,,Clear,0,2012-11-12 12:35:00
7:15 AM,26.6,21.2,80,30.39,10.0,Calm,Calm,-,N/A,,Clear,0,2012-11-12 13:15:00
7:35 AM,28.4,23.0,80,30.39,10.0,Calm,Calm,-,N/A,,Clear,0,2012-11-12 13:35:00
8:15 AM,28.4,24.8,86,30.40,10.0,Calm,Calm,-,N/A,,Clear,0,2012-11-12 14:15:00
8:35 AM,30.2,24.8,80,30.41,10.0,SW,3.5,-,N/A,,Clear,230,2012-11-12 14:35:00
9:15 AM,33.8,24.8,70,30.41,10.0,Calm,Calm,-,N/A,,Clear,0,2012-11-12 15:15:00
9:55 AM,37.4,21.2,52,30.43,10.0,Calm,Calm,-,N/A,,Clear,0,2012-11-12 15:55:00
10:35 AM,39.2,21.2,49,30.43,10.0,WSW,5.8,-,N/A,,Clear,240,2012-11-12 16:35:00
10:55 AM,39.2,21.2,49,30.43,10.0,WSW,5.8,-,N/A,,Clear,250,2012-11-12 16:55:00
11:35 AM,42.8,19.4,39,30.43,10.0,West,4.6,-,N/A,,Clear,270,2012-11-12 17:35:00
11:55 AM,42.8,21.2,42,30.42,10.0,WNW,5.8,-,N/A,,Clear,300,2012-11-12 17:55:00
12:15 PM,44.6,19.4,37,30.42,10.0,West,6.9,-,N/A,,Clear,270,2012-11-12 18:15:00
12:55 PM,44.6,21.2,39,30.41,10.0,WNW,8.1,-,N/A,,Clear,300,2012-11-12 18:55:00
1:16 PM,46.4,21.2,37,30.41,10.0,West,13.8,-,N/A,,Clear,260,2012-11-12 19:16:00
1:35 PM,46.4,21.2,37,30.40,10.0,West,10.4,-,N/A,,Clear,280,2012-11-12 19:35:00
1:55 PM,46.4,21.2,37,30.40,10.0,WNW,8.1,18.4,N/A,,Clear,300,2012-11-12 19:55:00
2:15 PM,46.4,21.2,37,30.40,10.0,WNW,10.4,17.3,N/A,,Clear,300,2012-11-12 20:15:00
2:35 PM,46.4,23.0,40,30.40,10.0,WNW,10.4,-,N/A,,Clear,290,2012-11-12 20:35:00
2:55 PM,48.2,23.0,37,30.40,10.0,West,11.5,17.3,N/A,,Clear,270,2012-11-12 20:55:00
3:15 PM,46.4,21.2,37,30.40,10.0,West,9.2,17.3,N/A,,Clear,280,2012-11-12 21:15:00
3:36 PM,46.4,21.2,37,30.40,10.0,WNW,6.9,-,N/A,,Clear,290,2012-11-12 21:36:00
3:55 PM,46.4,21.2,37,30.40,10.0,West,5.8,-,N/A,,Clear,280,2012-11-12 21:55:00
4:55 PM,44.6,23.0,43,30.40,10.0,West,4.6,-,N/A,,Clear,280,2012-11-12 22:55:00
5:15 PM,42.8,23.0,46,30.41,10.0,West,3.5,-,N/A,,Clear,280,2012-11-12 23:15:00
5:35 PM,42.8,24.8,49,30.41,10.0,WNW,3.5,-,N/A,,Clear,290,2012-11-12 23:35:00
5:56 PM,37.4,26.6,65,30.42,10.0,WSW,3.5,-,N/A,,Clear,240,2012-11-12 23:56:00
6:15 PM,37.4,24.8,60,30.42,10.0,Calm,Calm,-,N/A,,Clear,0,2012-11-13 00:15:00
6:35 PM,37.4,23.0,56,30.43,10.0,Calm,Calm,-,N/A,,Clear,0,2012-11-13 00:35:00
7:15 PM,35.6,26.6,70,30.42,10.0,SW,4.6,-,N/A,,Clear,220,2012-11-13 01:15:00
7:55 PM,35.6,23.0,60,30.43,10.0,Calm,Calm,-,N/A,,Clear,0,2012-11-13 01:55:00
8:15 PM,35.6,23.0,60,30.43,10.0,Calm,Calm,-,N/A,,Clear,0,2012-11-13 02:15:00
8:55 PM,35.6,23.0,60,30.44,10.0,Calm,Calm,-,N/A,,Clear,0,2012-11-13 02:55:00
9:15 PM,33.8,23.0,65,30.44,10.0,Calm,Calm,-,N/A,,Clear,0,2012-11-13 03:15:00
9:35 PM,33.8,23.0,65,30.45,10.0,SSW,3.5,-,N/A,,Clear,210,2012-11-13 03:35:00
9:56 PM,33.8,23.0,65,30.45,10.0,Calm,Calm,-,N/A,,Clear,0,2012-11-13 03:56:00
10:15 PM,33.8,23.0,65,30.45,10.0,Calm,Calm,-,N/A,,Clear,0,2012-11-13 04:15:00
10:35 PM,33.8,23.0,65,30.45,10.0,Calm,Calm,-,N/A,,Clear,0,2012-11-13 04:35:00
10:56 PM,32.0,23.0,69,30.46,10.0,Calm,Calm,-,N/A,,Clear,0,2012-11-13 04:56:00
11:15 PM,32.0,21.2,64,30.46,10.0,Calm,Calm,-,N/A,,Clear,0,2012-11-13 05:15:00
11:35 PM,32.0,23.0,69,30.46,10.0,Calm,Calm,-,N/A,,Clear,0,2012-11-13 05:35:00
11:56 PM,30.2,21.2,69,30.46,10.0,South,3.5,-,N/A,,Clear,190,2012-11-13 05:56:00